EHI
0 0 0 0 0 0 0 0 0 0 0 0 0 0 0 0 0 0 0 0 0 0 0 0 0 0 0 0 0 0 0 0 0 0 0 0 0 0 0 0 0 0 0 0
0 0 0 0 0 0 0 0 0 0 0 0 0 0 0 0 0 0 0 0 0 0 0 0 0 0 0 0 0 0 0 0 0 0 0 0 0 0 0 0 0 0 0 0
0 0 0 0 0 0 0 0 0 0 0 0 0 0 0 0 0 0 0 0 0 0 0 0 0 0 0 0 0 0 0 0 0 0 0 0 0 0 0 0 0 0 0 0
0 0 0 0 0 0 0 0 0 0 0 0 0 0 0 0 0 0 0 0 0 0 0 0 0 0 0 0 0 0 0 0 0 0 0 0 0 0 0 0 0 0 0 0
0 0 0 0 0 0 0 0 0 0 0 0 0 0 0 0 0 0 0 0 0 0 0 0 0 0 0 0 0 0 0 0 0 0 0 0 0 0 0 0 0 0 0 0
0 0 0 0 0 0 0 0 0 0 0 0 0 0 0 0 0 0 0 0 0 0 0 0 0 0 0 0 0 0 0 0 0 0 0 0 0 0 0 0 0 0 0 0
0 0 0 0 0 0 0 0 0 0 0 0 0 0 0 0 0 0 0 0 0 0 0 0 0 0 0 0 0 0 0 0 0 0 0 0 0 0 0 0 0 0 0 0
0 0 0 0 0 0 0 0 0 0 0 0 0 0 0 0 0 0 0 0 0 0 0 0 0 0 0 0 0 0 0 0 0 0 0 0 0 0 0 0 0 0 0 0
0 0 0 0 0 0 0 0 0 0 0 0 0 0 0 0 0 0 0 0 0 0 0 0 0 0 0 0 0 0 0 0 0 0 0 0 0 0 0 0 0 0 0 0
0 0 0 0 0 0 0 0 0 0 0 0 0 0 0 0 0 0 0 0 0 0 0 0 0 0 0 0 0 0 0 0 0 0 0 0 0 0 0 0 0 0 0 0
0 0 0 0 0 0 0 0 0 0 0 0 0 0 0 0 0 0 0 0 0 0 0 0 0 0 0 0 0 0 0 0 0 0 0 0 0 0 0 0 0 0 0 0
0 0 0 0 0 0 0 0 0 0 0 0 0 0 0 0 0 0 0 0 0 0 0 0 0 0 0 0 0 0 0 0 0 0 0 0 0 0 0 0 0 0 0 0
0 0 0 0 0 0 0 0 0 0 0 0 0 0 0 0 0 0 0 0 0 0 0 0 0 0 0 0 0 0 0 0 0 0 0 0 0 0 0 0 0 0 0 0
0 0 0 0 0 0 0 0 0 0 0 0 0 0 0 0 0 0 0 0 0 0 0 0 0 0 0 0 0 0 0 0 0 0 0 0 0 0 0 0 0 0 0 0
0 0 0 0 0 0 0 0 0 0 0 0 0 0 0 0 0 0 0 0 0 0 0 0 0 0 0 0 0 0 0 0 0 0 0 0 0 0 0 0 0 0 0 0
0 0 0 0 0 0 0 0 0 0 0 0 0 0 0 0 0 0 0 0 0 0 0 0 0 0 0 0 0 0 0 0 0 0 0 0 0 0 0 0 0 0 0 0
0 0 0 0 0 0 0 0 0 0 0 0 0 0 0 0 0 0 0 0 0 0 0 0 0 0 0 0 0 0 0 0 0 0 0 0 0 0 0 0 0 0 0 0
0 0 0 0 0 0 0 0 0 0 0 0 0 0 0 0 0 0 0 0 0 0 0 0 0 0 0 0 0 0 0 0 0 0 0 0 0 0 0 0 0 0 0 0
0 0 0 0 0 0 0 0 0 0 0 0 0 0 0 0 0 0 0 0 0 0 0 0 0 0 0 0 0 0 0 0 0 0 0 0 0 0 0 0 0 0 0 0
0 0 0 0 0 0 0 0 0 0 0 0 0 0 0 0 0 0 0 0 0 0 0 0 0 0 0 0 0 0 0 0 0 0 0 0 0 0 0 0 0 0 0 0
0 0 0 0 0 0 0 0 0 0 0 0 0 0 0 0 0 0 0 0 0 0 0 0 0 0 0 0 0 0 0 0 0 0 0 0 0 0 0 0 0 0 0 0
0 0 0 0 0 0 0 0 0 0 0 0 0 0 0 0 0 0 0 0 0 0 0 0 0 0 0 0 0 0 0 0 0 0 0 0 0 0 0 0 0 0 0 0
0 0 0 0 0 0 0 0 0 0 0 0 0 0 0 0 0 0 0 0 0 0 0 0 0 0 0 0 0 0 0 0 0 0 0 0 0 0 0 0 0 0 0 0
0 0 0 0 0 0 0 0 0 0 0 0 0 0 0 0 0 0 0 0 0 0 0 0 0 0 0 0 0 0 0 0 0 0 0 0 0 0 0 0 0 0 0 0
0 0 0 0 0 0 0 0 0 0 0 0 0 0 0 0 0 0 0 0 0 0 0 0 0 0 0 0 0 0 0 0 0 0 0 0 0 0 0 0 0 0 0 0
0 0 0 0 0 0 0 0 0 0 0 0 0 0 0 0 0 0 0 0 0 0 0 0 0 0 0 0 0 0 0 0 0 0 0 0 0 0 0 0 0 0 0 0
0 0 0 0 0 0 0 0 0 0 0 0 0 0 0 0 0 0 0 0 0 0 0 0 0 0 0 0 0 0 0 0 0 0 0 0 0 0 0 0 0 0 0 0
Wind_Speed
1 1 2 2 3 3 4 5 5 4 3 3 1 1 0 1 1 1 1 2 2 3 3 3 4 4 4 5 6 6 7 7 6 6 6 6 5 5 4 4 4 4 3 2
2 1 0 1 2 3 4 4 5 3 4 3 1 1 2 2 2 2 3 3 3 3 3 4 5 5 5 6 6 7 8 7 6 6 6 6 5 5 5 4 3 3 3 3
1 1 2 3 5 5 3 3 5 6 6 2 1 1 1 1 2 3 4 5 5 5 5 5 6 6 7 7 6 7 7 7 7 7 7 6 6 5 5 4 4 4 3 3
2 2 3 5 2 2 3 1 1 1 1 1 1 2 2 2 2 3 4 5 6 5 6 5 5 5 5 5 7 7 7 7 8 8 7 6 6 6 5 4 4 3 4 4
2 2 4 4 1 1 3 1 4 1 2 2 1 3 1 2 2 2 3 4 5 5 6 5 5 4 4 5 6 7 8 8 8 8 8 7 7 6 5 4 4 3 3 4
3 3 5 4 2 1 3 1 3 2 3 3 2 1 3 4 4 4 4 4 5 5 4 4 3 2 4 5 6 8 8 7 7 8 8 8 7 6 4 4 4 4 4 4
3 3 5 3 3 1 3 3 1 2 2 3 1 3 4 5 4 4 4 5 5 5 5 5 3 1 3 4 6 6 5 6 6 7 7 7 6 5 5 4 4 4 4 4
4 4 7 1 2 3 2 1 2 2 2 2 3 4 4 4 4 5 5 5 5 5 5 5 2 0 2 3 3 3 5 6 6 7 6 6 6 6 5 6 6 5 5 4
6 5 1 2 3 2 2 2 1 1 3 3 4 4 4 4 4 4 4 4 4 4 5 5 3 1 2 2 2 3 5 5 5 6 6 6 7 7 6 6 5 5 5 5
2 1 1 2 3 2 2 1 1 2 3 4 4 5 6 5 4 4 4 4 4 4 4 4 4 3 2 2 2 4 5 5 5 6 6 6 6 6 6 7 6 6 6 6
2 2 2 1 1 1 1 1 2 3 4 5 5 6 5 5 5 5 5 4 4 3 4 4 4 3 2 1 2 3 4 4 5 5 6 6 6 6 7 7 8 8 6 6
6 5 5 4 2 1 0 2 3 4 5 5 4 6 6 5 5 5 5 5 4 4 5 5 4 3 3 2 2 3 3 4 4 4 5 5 5 5 10 11 14 16 13 10
3 2 3 2 2 1 1 2 3 4 5 6 5 5 5 5 5 4 5 5 5 5 5 5 4 4 3 2 2 3 4 4 3 4 4 5 5 5 5 8 13 15 16 17
3 3 2 2 1 1 1 2 3 4 4 5 5 5 5 5 5 5 5 5 5 5 5 5 5 4 4 3 3 3 4 4 4 4 4 5 5 5 5 5 5 5 10 16
3 3 3 1 0 1 2 3 4 5 5 5 5 5 5 6 6 6 5 5 5 5 5 5 5 5 4 3 3 4 4 3 3 3 4 4 4 5 5 6 5 4 3 6
4 3 2 1 2 2 3 3 4 5 5 6 6 6 6 6 6 6 6 5 5 6 6 5 5 5 4 4 4 4 4 6 5 3 3 4 4 4 5 5 5 5 5 5
5 3 3 3 4 3 3 4 5 6 6 6 6 6 6 6 6 6 6 5 5 5 5 5 6 5 4 4 4 3 4 4 5 4 4 4 4 5 5 5 5 5 5 6
5 4 4 4 4 4 5 5 5 6 6 6 6 6 6 6 6 7 7 6 6 6 6 5 5 5 4 4 3 3 3 3 3 4 3 4 4 4 4 5 5 6 4 5
4 4 4 4 4 5 5 5 6 6 6 5 6 6 6 6 6 7 6 6 6 7 6 5 7 5 4 4 5 3 3 4 4 4 4 5 4 3 4 4 4 4 4 4
3 3 4 5 5 5 6 6 6 6 6 5 6 6 7 7 6 6 7 7 6 5 5 6 5 4 4 5 5 3 3 4 4 4 3 3 3 3 3 4 4 4 4 4
4 4 5 5 6 6 6 6 6 7 7 6 6 7 8 8 6 6 6 7 6 5 5 8 5 4 4 4 5 3 3 4 4 3 3 3 3 3 3 3 3 3 3 3
4 4 5 5 5 6 6 5 6 7 7 7 7 7 7 8 7 6 6 6 6 7 5 4 4 6 6 6 3 3 3 4 4 3 3 3 3 3 3 3 2 2 2 3
4 4 5 5 6 6 6 6 6 6 7 7 7 7 8 7 5 5 7 4 4 7 5 4 7 10 10 5 3 3 3 4 4 3 3 3 3 3 3 3 3 3 3 3
4 4 5 5 4 5 7 7 6 5 6 7 7 7 7 6 5 5 6 8 10 10 5 7 11 11 9 3 3 3 3 3 3 3 3 3 3 3 3 3 3 2 2 3
4 4 4 5 5 5 6 7 6 6 6 6 7 7 5 5 5 5 4 5 8 9 5 7 11 10 5 3 3 3 3 3 4 3 3 3 2 3 3 3 3 3 3 3
3 4 4 5 5 5 5 4 5 5 5 6 6 5 4 4 5 5 4 5 6 8 5 4 5 6 3 3 3 4 3 4 4 3 3 3 3 3 3 3 3 3 3 3
4 4 4 4 4 4 4 4 5 5 5 5 6 5 4 4 4 4 5 4 4 4 4 4 4 3 3 3 4 4 3 3 3 3 3 3 3 3 3 3 3 3 3 3
Wind_Direction
228 220 152 189 200 178 173 181 179 203 210 248 271 173 92 47 42 40 353 324 287 263 253 244 233 219 201 189 176 163 159 164 169 159 149 144 142 141 138 143 151 152 151 151
355 342 88 328 266 210 206 199 203 209 244 255 260 97 65 39 32 8 329 312 304 290 275 252 233 222 209 198 186 170 171 174 164 155 152 153 152 151 151 156 158 159 167 169
272 348 49 288 249 212 200 208 188 214 237 244 205 132 103 38 18 349 328 322 313 295 275 259 241 221 211 202 183 176 177 171 165 162 162 165 162 161 168 173 172 175 179 177
129 86 225 250 282 183 162 329 323 229 292 257 201 146 111 65 18 340 328 321 314 304 291 277 254 233 211 184 177 180 179 176 171 168 170 167 168 176 178 173 178 182 184 182
136 184 271 287 303 129 140 61 357 44 21 7 81 102 7 5 349 313 308 303 295 291 285 283 266 231 188 180 180 182 186 185 179 174 172 173 180 182 179 175 181 184 182 183
151 186 232 249 288 325 103 174 351 50 37 9 67 73 282 324 328 321 322 315 310 312 308 307 289 211 179 186 187 197 196 188 177 174 175 181 184 179 174 176 185 183 191 193
171 219 259 267 299 65 160 228 45 46 24 16 61 229 276 311 319 322 322 323 328 331 329 317 310 172 185 194 209 207 180 169 171 175 178 178 175 172 173 177 181 190 198 207
169 205 247 295 99 150 183 106 75 35 5 342 306 300 310 318 320 325 328 328 332 336 333 331 335 140 206 224 215 169 165 172 177 177 177 173 173 178 180 182 191 199 205 217
190 208 198 72 111 92 102 108 46 351 332 326 312 309 310 308 312 315 316 317 321 325 327 335 344 341 260 258 189 170 172 182 182 178 180 175 177 182 186 193 203 206 209 220
176 197 136 103 90 62 60 80 6 335 324 327 311 306 305 303 305 311 313 311 314 319 319 320 330 329 285 266 206 185 190 191 184 184 187 185 187 188 194 202 208 210 212 220
188 161 123 156 104 82 52 29 353 335 320 313 308 303 299 301 303 306 308 309 310 305 298 300 310 309 299 266 210 204 203 199 194 195 195 197 201 204 205 211 210 210 213 210
206 196 182 199 192 172 85 315 312 311 308 306 301 300 301 295 296 300 304 306 307 305 300 298 298 295 292 270 230 214 216 209 205 203 202 204 208 220 222 221 227 229 226 219
169 153 158 171 160 133 257 294 305 303 298 303 304 297 298 297 298 303 306 309 306 303 301 299 296 295 296 280 245 229 229 222 216 211 209 209 210 215 228 232 234 236 236 235
137 126 144 158 184 298 307 316 318 311 309 310 310 307 305 302 304 305 307 308 306 304 303 302 296 293 296 292 271 255 246 233 225 222 218 216 216 217 218 221 227 235 236 236
156 153 170 178 258 312 326 321 318 315 315 313 311 308 310 307 302 301 301 300 301 299 299 300 296 299 307 294 277 266 256 245 232 227 223 223 221 219 220 222 228 233 227 236
164 155 162 203 259 290 305 305 301 300 303 304 306 306 302 299 298 298 298 297 297 297 296 294 292 298 299 291 281 272 261 255 248 234 227 225 221 221 223 224 228 229 230 229
159 195 210 233 252 268 275 275 276 283 291 293 295 298 298 299 299 300 301 297 287 285 287 285 286 293 291 286 280 274 269 264 255 245 235 231 228 226 226 226 229 231 233 227
185 194 198 214 238 261 275 276 276 280 281 283 291 294 294 292 292 294 296 298 294 291 284 277 281 287 284 284 281 275 272 270 261 253 246 240 239 233 230 229 230 234 237 236
196 210 225 236 242 250 260 267 270 272 275 279 282 282 280 278 280 285 291 292 288 288 288 278 287 286 277 276 281 270 270 270 266 260 254 258 255 239 236 234 233 232 232 228
220 231 241 252 254 250 258 266 270 272 270 269 272 276 279 278 277 282 284 279 268 265 275 281 282 273 269 271 278 267 268 269 267 264 259 254 253 250 245 242 239 235 230 228
244 254 260 262 268 266 261 264 268 271 273 267 264 268 273 277 277 276 278 282 277 266 272 282 280 269 265 267 271 261 262 267 270 269 266 263 261 258 253 250 248 244 238 236
253 260 266 269 272 277 274 266 262 268 274 273 268 268 272 276 277 273 260 258 270 281 282 272 270 272 273 273 255 255 260 264 265 265 265 266 266 264 261 259 258 256 252 248
260 264 271 274 274 278 285 278 268 266 268 270 271 270 267 268 266 269 280 268 261 278 281 268 277 282 281 271 248 251 259 263 265 263 260 261 264 266 265 264 260 257 252 251
275 279 279 282 286 286 286 285 280 272 268 269 267 263 262 269 270 248 249 277 286 287 278 278 286 287 285 260 244 247 254 261 264 264 260 257 259 262 263 266 267 266 264 263
282 283 285 291 288 279 277 286 291 285 280 277 274 269 257 244 252 267 264 266 280 290 283 284 288 289 282 255 244 244 247 252 256 256 250 253 256 259 262 266 268 270 266 265
283 281 277 270 268 274 281 284 284 286 287 290 290 281 271 262 258 264 267 267 269 281 280 273 275 279 264 254 249 247 246 260 272 267 253 252 256 259 261 264 268 268 270 269
293 289 288 289 283 274 274 275 278 284 283 281 287 288 283 280 276 272 271 271 273 273 271 269 265 259 255 251 249 248 247 245 246 247 247 246 249 253 258 262 265 268 271 270